Weather in Barabanovka

Russia / Orenburg Oblast     52°11′57″N   53°29′14″E
temp.,
°C
wind,
m/s
gust,
m/s
humid.,
%
clouds,
%
prec.,
mm/h
press.,
hPa
HPBL,
m
23 may, mon
mon2323:00+6sse2389100 0.6 1001114
02:00+7ese4890100 0.2 998453
05:00+7ene4995100 2.9 996460
08:00+7ne3596100 0.9 995358
11:00+8n2293100 1.0 997432
14:00+9nw2386100 0.1 1000689
17:00+10wsw1281100 0.1 1002598
20:00+10nnw117986 0.0 100298
24 may, tue
tue2423:00+9e2286100 0.3 100320
02:00+8e1195100 1.1 100327
05:00+8nnw119370 1.1 100410
08:00+10nnw238295 0.0 1005313
11:00+13nnw4367100 0.0 10051076
14:00+13n3262100 0.0 1006899
17:00+13ene1165100 0.3 1007588
20:00+11n2485100 0.8 1007154
25 may, wed
wed2523:00+9n2285100 0.8 100812
02:00+8nnw2284100 0.0 100813
05:00+8wnw1183100 0.0 100811
08:00+10nw2369100 0.0 1008182
11:00+14w3451100 0.0 10081199
14:00+15w5549100 0.0 10082142
17:00+15wnw555199 0.1 10091646
20:00+11nw5670100 0.0 1011722
26 may, thu
thu2623:00+7nw488218 0.0 1012218
02:00+5nw368430 0.0 1012119
05:00+4wnw35875 0.0 101397
08:00+7wnw46712 0.0 1014366
11:00+11w455423 0.0 10141559
14:00+12w5649100 0.1 10142063
17:00+12wsw4649100 0.1 10151773
20:00+11sw476255 0.1 1014406
27 may, fri
fri2723:00+8ssw477396 0.1 1015111
02:00+7s5137698 0.0 1013304
05:00+8s81772100 0.0 1011482
08:00+10s91773100 0.0 1010513
11:00+13ssw101471100 0.1 1009981
14:00+12s81788100 1.1 10081458
17:00+11ssw8139082 1.7 1006661
20:00+13ssw5108366 0.2 1006731